Showing default

NORSAT 1, 42826

Orbit data source: Space-Track

NORSAT 1, 42826 is a payload satellite owned by Statsat (NO) in SSO that was launched on Fri, 14 Jul 2017 UTC via a SOYUZ-2-1A launch vehicle from the Tyuratam Missile And Space Complex (TTMTR). Payload-class satellites include a variety of spacecraft equipped with specific instruments for various scientific and technological missions. These include communications satellites like Starlink; space stations such as the ISS; scientific satellites like the Hubble; Earth observation satellites from companies like Planet Labs, Umbra, and HawkEye 360; GPS; miniature CubeSats for education and research; and military/defense satellites.

Loading next visibility...
Identifier
42826, 2017-042B
Orbit
SSO
Country
Flag of NONO / NOR
Related business
Manufacturer
UTIAS-SFL
Mission
Operational Commercial Communications
Bus & Motor
GNB, Unknown motor
Mass
30 kg wet, 30 kg dry
Launch date (UTC)
2017-07-14 (8 years ago)
Launch vehicle
SOYUZ-2-1A
Launch site
Tyuratam Missile And Space Complex (TTMTR)
Object type
Payload
Rocket body
Debris
Shape & HBR
Box + 2 Pan + 4 Ant, 1.0 m
Radar Cross Section
0.202 m², Medium (>0.1 m² and < 1m²)

Expand to show TLE details & history
Last TLE update: 17 hours ago

TLE from 17 hours ago
0 NORSAT 1
1 42826U 17042B   25340.90735173  .00012139  00000-0  73051-3 0  9990
2 42826  97.4254 148.5201 0008210  35.8113 324.3666 15.10944172458166
Epoch: 2025-12-06T21:46Z
TLE epoch observation values (Epoch: 2025-12-06T21:46:35.189Z)
Latitude
-0.00004°
Longitude
105.94513°
Altitude
531.785 km
Speed
7.599 km/s
True Right ascension
09h 54m 04s
True Declination
0° 00' 00"
Sunlit
Object was in daylight at epoch
Visualization orbit readout
Latitude
Unknown
Longitude
Unknown
Altitude
Unknown
Speed
Unknown
Apparent Right ascension
Unknown
Apparent Declination
Unknown
Sunlit
N/A
Visualization observer readout
Local Sidereal Time
13:18:44
Azimuth
Unknown
Elevation
Unknown
Doppler factor
Unknown
Orbital elements
Apogee altitude
535.97 km
Perigee altitude
524.626 km
Semi-major axis
6,908.435 km
Eccentricity
0.00082
Inclination
97.4254°
RAAN
148.5201°
Arg. of periapsis
35.8113°
True anomaly
324.31174°
Mean anomaly
324.3666°
Eccentric anomaly
324.33918°
Mean motion
3.77984 °/min
Orbital period
95.24 mins
BSTAR
0.00073051
Loading maneuver chart data...
Computing Atmospheric mass density...

Documentation

Showing up to 5 results
|